Tracking 28766 objects as of 14-Apr-2024
HD Live streaming from Space Station
objects crossing your sky now

STARLINK-2150

Track STARLINK-2150 now!
10-day predictions
STARLINK-2150 is classified as:


NORAD ID: 47739
Int'l Code: 2021-017T
Perigee: 553.3 km
Apogee: 555.4 km
Inclination: 53.1 °
Period: 95.6 minutes
Semi major axis: 6925 km
RCS: Unknown
Launch date: March 4, 2021
Source: United States (US)
Launch site: AIR FORCE EASTERN TEST RANGE (AFETR)
Your satellite tracking list
Your tracking list is empty




NASA's NSSDC Master Catalog

Two Line Element Set (TLE):
1 47739U 21017T   24104.38936412 -.00000219  00000-0  41761-5 0  9995
2 47739  53.0545 107.9395 0001476  80.4441 279.6714 15.06399225172779
Source of the keplerian elements: AFSPC